Flag for Canada Weather past 2 weeks in Nanaimo, British Columbia, Canada

Now
68 °F

Mild.


Feels Like: 68 °F
Forecast: 67 / 84 °F
Wind: 22 mph from Northwest

Location: Entrance Island

Current Time: Jul 3, 2015 at 4:05:20 AM

Latest Report: Jul 3, 2015 at 3:00 AM


Visibility: N/A

Pressure: 29.94 "Hg

Humidity: 68%

Dew point: 57 °F

Location of NanaimoLocation

Historic Weather in Nanaimo — Graph

°F

Nanaimo temperature yesterday

Maximum temperature yesterday: 76 °F (at 8:00 PM)
Minimum temperature yesterday: 65 °F (at 7:00 AM)
Average temperature yesterday: 70 °F

Past Weeks' High & Low Weather Summary

 TemperatureHumidityPressure
High76 °F (Jun 27, 8:00 PM)89% (Jun 18, 7:00 AM)30.15 "Hg (Jun 18, 7:00 AM)
Low56 °F (Jun 19, 7:00 AM)34% (Jun 21, 8:00 PM)29.88 "Hg (Jun 27, 9:00 PM)
Average66 °F70%30.02 "Hg
* Reported Jun 18 3:00 AM — Jul 3 3:00 AM, Nanaimo, Weather by CustomWeather, © 2015

Note: Actual official high and low records may vary slightly from our data, if they occured in-between our weather recording intervals... More about our weather records

Advertising

Nanaimo weather history for previous 24 hours

 ConditionsComfort  
Time TempWeatherWind HumidityBarometerVisibility
3:00 AM
Fri, Jul 3
68 °FMild.22 mph68%29.94 "HgN/A
2:00 AM69 °FMild.26 mph65%29.93 "HgN/A
1:00 AM70 °FMild.28 mph61%29.93 "HgN/A
12:00 AM71 °FMild.28 mph60%29.93 "HgN/A
11:00 PM
Thu, Jul 2
72 °FMild.29 mph57%29.92 "HgN/A
10:00 PM74 °FMild.31 mph52%29.91 "HgN/A
9:00 PM74 °FMild.29 mph50%29.90 "HgN/A
8:00 PM76 °FMild.29 mph43%29.91 "HgN/A
7:00 PM76 °FMild.20 mph45%29.93 "HgN/A
6:00 PM76 °FMild.26 mph47%29.94 "HgN/A
5:00 PM74 °FMild.22 mph56%29.95 "HgN/A
4:00 PM73 °FMild.20 mph56%29.97 "HgN/A
3:00 PM71 °FMild.18 mph61%29.98 "HgN/A
2:00 PM70 °FMild.25 mph60%29.99 "HgN/A
1:00 PM70 °FMild.23 mph62%30.01 "HgN/A
12:00 PM67 °FMild.23 mph68%30.02 "HgN/A
11:00 AM65 °FMild.25 mph71%30.02 "HgN/A
10:00 AM66 °FMild.25 mph63%30.03 "HgN/A
9:00 AM66 °FMild.26 mph70%30.03 "HgN/A
8:00 AM65 °FMild.26 mph70%30.03 "HgN/A
7:00 AM65 °FMild.26 mph68%30.01 "HgN/A
6:00 AM66 °FMild.26 mph68%30.00 "HgN/A
5:00 AM67 °FMild.28 mph67%29.99 "HgN/A
4:00 AM68 °FMild.29 mph64%29.98 "HgN/A
Weather by CustomWeather, © 2015

See weather overviewHow to use our weather pages